sat.trackr.live / text

‹ back to catalog

STARLINK-5231

NORAD 54182 · 2022-141AB

PAYLOAD ACTIVE UNKNOWN

§ Identity

Operator
Country
US
Launch date
2022-10-28
Launch site
AFWTR
Launch vehicle
Mass (kg)
RCS (m²)

Purposes: comms

External: N2YO · Heavens-Above · Gunter

§ Orbital elements

Epoch: 2026-09-20T22:00:03.000096Z

Period
94.88 min
Inclination
53.1592°
Eccentricity
0.0002373
Mean motion
15.17673346 rev/d
Perigee alt
511.2 km
Apogee alt
514.5 km
Semi-major
6,891.0 km
B*
2.3557e-4
RAAN
176.4159°
Arg perigee
87.1192°
Mean anomaly
167.1893°
Rev number
575

§ Raw data

STARLINK-52311 54182U 22141AB  26263.91670139  .00004491  00000+0  23557-3 0  99972 54182  53.1592 176.4159 0002373  87.1192 167.1893 15.17673346  5758

JSON: /api/v1/satellites/54182 · /tle

For live sub-satellite position, see the globe view (requires WebGL).

§ Visibility from observer

Set your observer location to see the next 7 days of passes ≥ 10°. The values pass through the URL so the page stays shareable.

No JS? Fill the form by hand. The geolocation button needs JavaScript.